Starlink 31961

operational
NORAD ID: 59894 Int'l Des: 2024-100 Owner: SPXS Country: US Constellation: starlink
LEOCIRCULAR

About Starlink 31961

Description loading...

Live Position

Loading 3D Globe...

Upcoming Passes

Altitude History

Altitude vs Time

uPlot chart will show altitude changes over time

Two-Line Element Set

1 59894U 24100K 25306.48627806 .00000834 00000-0 39840-4 0 9992
2 59894 43.0018 116.7736 0001457 272.4691 87.5994 15.27573840 81780
Epoch: Nov 2, 2025 • Age: 8 hours

Current Status

Altitude 485.5 km
Velocity 7.63 km/s
Sub-Earth Point 35.64°N, 174.16°W
Launch Date May 28, 2024
Age 1.4 years
Type internet

Technical Details

Classification Payload
Mass 730.00 kg
Dry Mass 700.00 kg
Total Mass 730.00 kg
Length 0.30 m
Diameter 4.10 m
Span 29.00 m
Shape Box + pan
Manufacturer SPXS
Bus Type Starlink V2M
Phase Status In Orbit
Owner/State SPXS/US

Large Constellations

Loading constellations...